Robstown, TX

6:28 AM CST on January 19, 2017 (GMT -0600)
Robstown

Weather History for KRBO - November, 2012

Change the Weather History Date:

Tuesday, November 27, 2012

  Actual Average (KCRP) Record (KCRP)
Temperature  
Mean Temperature 62 °F -  
Max Temperature 71 °F 70 °F 93 °F (1994)
Min Temperature 51 °F 52 °F 31 °F (2010)
Degree Days  
Heating Degree Days 3    
Growing Degree Days 12 (Base 50)    
Moisture  
Dew Point 49 °F    
Average Humidity 59    
Maximum Humidity 86    
Minimum Humidity 39    
Precipitation  
Precipitation 0.00 in - - ()
Sea Level Pressure  
Sea Level Pressure 30.26 in    
Wind  
Wind Speed 9 mph (North)    
Max Wind Speed 21 mph    
Max Gust Speed 29 mph    
Visibility 10 miles    
Events Thunderstorm    
Averages and records for this station are not official NWS values.
T = Trace of Precipitation, MM = Missing Value Source: NWS Daily Summary

Daily Weather History Graph

Daily Weather History Graph

Search for Another Location

Airport or City:

Trip Planner

Search our weather history database for the weather conditions in past years. The results will help you decide how hot, cold, wet, or windy it might be!

Date:

Astronomy

Nov. 27, 2012 Rise Set
Actual Time 7:01 AM CST 5:35 PM CST
Civil Twilight 6:36 AM CST 6:00 PM CST
Nautical Twilight 6:07 AM CST 6:29 PM CST
Astronomical Twilight 5:39 AM CST 6:57 PM CST
Moon 5:06 PM CST (11/27) 6:09 AM CST (11/27)
Length of Visible Light 11h 24m
Length of Day
10h 33m
Waxing Gibbous, 99% of the Moon is Illuminated
Nov 27
Waxing Gibbous
Nov 28
Full
Dec 6
Last Quarter
Dec 13
New
Dec 19
First Quarter

Hourly Weather History & Observations

Time (CST) Temp. Dew Point Humidity Pressure Visibility Wind Dir Wind Speed Gust Speed Precip Events Conditions
12:15 AM 71.8 °F 62.6 °F 73% 30.12 in 10.0 mi Calm Calm - N/A Thunderstorm Unknown
12:35 AM 71.8 °F 63.9 °F 76% 30.10 in 10.0 mi Calm Calm - N/A Thunderstorm Scattered Clouds
12:55 AM 70.7 °F 65.1 °F 82% 30.12 in 10.0 mi South 8.1 mph - N/A   Scattered Clouds
1:15 AM 70.3 °F 64.8 °F 82% 30.10 in 10.0 mi SE 5.8 mph - N/A   Scattered Clouds
1:35 AM 69.4 °F 64.9 °F 86% 30.09 in 10.0 mi North 8.1 mph - N/A   Mostly Cloudy
1:55 AM 69.8 °F 64.8 °F 84% 30.08 in 10.0 mi NNE 9.2 mph - N/A   Overcast
2:15 AM 70.7 °F 63.9 °F 79% 30.09 in 10.0 mi NE 9.2 mph - N/A   Mostly Cloudy
2:35 AM 69.8 °F 63.9 °F 81% 30.09 in 10.0 mi NE 8.1 mph - N/A   Mostly Cloudy
2:55 AM 69.4 °F 62.8 °F 79% 30.10 in 10.0 mi NNE 11.5 mph - N/A   Scattered Clouds
3:15 AM 68.9 °F 59.0 °F 71% 30.10 in 10.0 mi NNE 15.0 mph 20.7 mph N/A   Scattered Clouds
3:35 AM 67.6 °F 55.6 °F 65% 30.12 in 10.0 mi NNE 11.5 mph - N/A   Scattered Clouds
3:55 AM 66.2 °F 54.1 °F 65% 30.13 in 10.0 mi NNE 13.8 mph - N/A   Clear
4:15 AM 65.1 °F 53.6 °F 66% 30.14 in 10.0 mi North 11.5 mph - N/A   Clear
4:35 AM 63.5 °F 53.6 °F 70% 30.15 in 10.0 mi North 10.4 mph - N/A   Clear
4:55 AM 63.5 °F 49.8 °F 61% 30.16 in 10.0 mi NNE 10.4 mph - N/A   Scattered Clouds
5:15 AM 63.1 °F 49.3 °F 61% 30.17 in 10.0 mi North 10.4 mph - N/A   Overcast
6:35 AM 61.2 °F 48.6 °F 63% 30.21 in 10.0 mi NNE 8.1 mph - N/A   Scattered Clouds
6:55 AM 60.6 °F 49.1 °F 66% 30.22 in 10.0 mi NNE 6.9 mph - N/A   Scattered Clouds
7:15 AM 59.5 °F 49.1 °F 68% 30.23 in 10.0 mi North 9.2 mph - N/A   Clear
7:35 AM 59.9 °F 49.1 °F 67% 30.25 in 10.0 mi North 12.7 mph - N/A   Scattered Clouds
7:55 AM 61.3 °F 48.9 °F 64% 30.27 in 10.0 mi North 12.7 mph 19.6 mph N/A   Mostly Cloudy
8:15 AM 59.7 °F 48.7 °F 67% 30.28 in 10.0 mi North 18.4 mph 24.2 mph N/A   Scattered Clouds
8:35 AM 59.0 °F 49.1 °F 70% 30.31 in 10.0 mi North 18.4 mph 25.3 mph N/A   Clear
8:55 AM 58.1 °F 45.9 °F 64% 30.32 in 10.0 mi North 20.7 mph 28.8 mph N/A   Clear
9:15 AM 58.1 °F 45.1 °F 62% 30.33 in 10.0 mi North 18.4 mph 27.6 mph N/A   Clear
9:35 AM 59.5 °F 45.5 °F 60% 30.34 in 10.0 mi North 18.4 mph 25.3 mph N/A   Clear
9:55 AM 60.6 °F 45.0 °F 56% 30.34 in 10.0 mi North 19.6 mph 25.3 mph N/A   Clear
10:15 AM 61.0 °F 45.0 °F 56% 30.34 in 10.0 mi North 17.3 mph 23.0 mph N/A   Clear
10:35 AM 62.1 °F 44.8 °F 53% 30.35 in 10.0 mi North 13.8 mph 23.0 mph N/A   Clear
10:55 AM 62.8 °F 44.6 °F 51% 30.35 in 10.0 mi North 13.8 mph - N/A   Clear
11:15 AM 64.0 °F 45.0 °F 50% 30.34 in 10.0 mi North 15.0 mph 19.6 mph N/A   Clear
11:35 AM 64.6 °F 44.4 °F 48% 30.33 in 10.0 mi NNW 15.0 mph 20.7 mph N/A   Clear
11:55 AM 65.8 °F 44.4 °F 46% 30.32 in 10.0 mi NNW 13.8 mph 19.6 mph N/A   Clear
12:15 PM 66.4 °F 44.4 °F 45% 30.32 in 10.0 mi NNW 13.8 mph 19.6 mph N/A   Clear
12:35 PM 66.9 °F 44.2 °F 44% 30.30 in 10.0 mi NNW 11.5 mph - N/A   Clear
12:55 PM 67.6 °F 44.4 °F 43% 30.30 in 10.0 mi NNW 13.8 mph 17.3 mph N/A   Clear
1:15 PM 67.3 °F 44.4 °F 44% 30.29 in 10.0 mi NNW 13.8 mph 18.4 mph N/A   Clear
1:35 PM 68.5 °F 44.6 °F 42% 30.28 in 10.0 mi NW 13.8 mph - N/A   Clear
1:55 PM 69.3 °F 44.8 °F 41% 30.28 in 10.0 mi NW 12.7 mph 20.7 mph N/A   Clear
2:15 PM 69.4 °F 44.6 °F 41% 30.28 in 10.0 mi NNW 17.3 mph 21.9 mph N/A   Clear
2:35 PM 69.4 °F 44.4 °F 41% 30.28 in 10.0 mi NNW 12.7 mph 17.3 mph N/A   Clear
2:55 PM 69.8 °F 44.4 °F 40% 30.27 in 10.0 mi NNW 13.8 mph 21.9 mph N/A   Clear
3:15 PM 70.3 °F 44.1 °F 39% 30.27 in 10.0 mi NNW 16.1 mph - N/A   Clear
3:35 PM 69.4 °F 43.7 °F 39% 30.27 in 10.0 mi NNW 15.0 mph 18.4 mph N/A   Clear
3:55 PM 69.4 °F 43.7 °F 39% 30.27 in 10.0 mi NNW 15.0 mph 18.4 mph N/A   Clear
4:15 PM 69.8 °F 43.7 °F 39% 30.27 in 10.0 mi NNW 13.8 mph - N/A   Clear
4:35 PM 69.1 °F 43.9 °F 40% 30.28 in 10.0 mi NNW 12.7 mph - N/A   Clear
4:55 PM 68.4 °F 43.9 °F 41% 30.28 in 10.0 mi NNW 11.5 mph - N/A   Clear
5:15 PM 67.5 °F 44.6 °F 44% 30.28 in 10.0 mi NNW 10.4 mph - N/A   Clear
5:35 PM 66.0 °F 44.6 °F 46% 30.28 in 10.0 mi NW 6.9 mph - N/A   Clear
5:55 PM 64.0 °F 45.0 °F 50% 30.29 in 10.0 mi North 6.9 mph - N/A   Clear
6:15 PM 62.6 °F 44.8 °F 52% 30.29 in 10.0 mi NNW 6.9 mph - N/A   Clear
6:35 PM 61.3 °F 45.0 °F 55% 30.30 in 10.0 mi North 5.8 mph - N/A   Clear
6:55 PM 60.3 °F 45.5 °F 58% 30.31 in 10.0 mi North 5.8 mph - N/A   Clear
7:15 PM 58.8 °F 45.0 °F 60% 30.31 in 10.0 mi North 8.1 mph - N/A   Clear
7:35 PM 60.1 °F 45.5 °F 59% 30.32 in 10.0 mi NNE 9.2 mph - N/A   Clear
7:55 PM 59.2 °F 45.5 °F 60% 30.32 in 10.0 mi NNE 9.2 mph - N/A   Clear
8:15 PM 58.6 °F 45.1 °F 61% 30.33 in 10.0 mi NNE 8.1 mph - N/A   Clear
8:35 PM 57.7 °F 44.8 °F 62% 30.33 in 10.0 mi NNE 8.1 mph - N/A   Clear
8:55 PM 57.2 °F 44.6 °F 63% 30.34 in 10.0 mi NNE 6.9 mph - N/A   Clear
9:15 PM 56.3 °F 44.1 °F 64% 30.34 in 10.0 mi NNE 6.9 mph - N/A   Clear
9:35 PM 55.6 °F 44.1 °F 65% 30.35 in 10.0 mi NNE 5.8 mph - N/A   Clear
9:55 PM 55.0 °F 43.7 °F 66% 30.35 in 10.0 mi NNE 4.6 mph - N/A   Clear
10:15 PM 54.5 °F 43.3 °F 66% 30.35 in 10.0 mi NNE 4.6 mph - N/A   Clear
10:55 PM 53.6 °F 42.8 °F 67% 30.35 in 10.0 mi NE 5.8 mph - N/A   Clear
11:15 PM 53.1 °F 42.4 °F 67% 30.35 in 10.0 mi NNE 6.9 mph - N/A   Clear
11:55 PM 51.8 °F 42.3 °F 70% 30.35 in 10.0 mi NNE 5.8 mph - N/A   Clear